User: anonymous   Login
Location: Unspecified
(0.0000°N, 0.0000°E)
Time: 06:50:32
(UTC+00:00)
Language:

STARLINK-31096 - Orbit

View from above orbital plane
View from above orbital plane
View from above satellite
View from above satellite

Ground track
Ground track

The orbit is defined by the following mean orbital elements,

1 58592U          26145.55520581 +.00000000 +00000-0 +15955-2 0 00008
2 58592  42.9964  94.9767 0009822 170.9978 189.1053 15.31797212    04
Epoch (UTC): 25 May 2026 13:19:29
Eccentricity: 0.0009822
inclination: 42.9964°
perigee height: 464 km
apogee height: 477 km
right ascension of ascending node: 94.9767°
argument of perigee: 170.9978°
revolutions per day: 15.31797212
mean anomaly at epoch: 189.1053°

The dashed part of the orbit path shows where the satellite is in the earth's shadow,  

DLR